Dewpoint
46 52 56 58 59 60 61 61 62 63 63 64 64 64 65 66 66 66 67 67 67 66 66 66 65 65 65 65 64 64 64 64 64 65 65 65 66 65 65 65 64 65 65 65 64 65 64 64 64 63 64 64 63 63 62 62 61 61 62 62 61 60 60 61 61 60 59 55 55 57 57 58 60 59 58 58 57 57 57 58 57 57 57 55 55
39 42 55 57 59 60 61 61 62 61 62 63 63 63 64 64 64 65 66 67 67 66 66 66 65 65 65 65 64 64 64 64 64 64 65 65 65 66 65 64 64 64 65 64 65 64 64 63 63 63 63 63 63 63 62 64 62 61 62 61 61 60 59 59 58 58 55 56 56 52 53 54 58 58 58 58 57 57 57 58 57 57 57 55 55
26 29 44 57 58 60 61 61 61 62 62 63 63 63 63 63 63 63 65 66 67 66 66 66 66 66 66 65 65 65 65 65 64 64 65 65 65 66 66 65 64 64 64 64 64 64 64 63 63 63 63 64 63 63 63 63 62 61 61 61 60 59 59 58 57 59 54 53 53 52 49 50 52 52 54 56 57 57 57 57 57 56 56 56 54
25 27 29 44 58 59 60 61 61 62 62 62 63 63 63 63 63 63 64 65 66 66 66 66 66 66 66 66 66 65 65 66 66 65 65 66 66 66 66 66 65 64 64 64 64 64 64 63 63 63 63 64 63 63 62 62 62 62 61 61 60 58 57 57 57 57 53 52 51 52 49 50 47 48 49 52 56 57 57 57 57 56 56 55 54
26 26 27 34 51 58 59 60 61 62 62 62 62 62 63 63 64 65 65 65 65 66 66 66 66 66 67 67 67 66 66 66 65 65 65 66 66 66 66 66 65 65 64 64 64 64 64 63 63 63 63 63 63 62 63 62 62 62 61 61 60 58 57 56 57 58 54 57 54 51 50 49 50 51 48 50 54 54 55 56 57 56 55 55 54
31 29 28 29 38 54 58 59 61 61 62 61 61 62 63 64 62 64 65 65 65 66 66 66 65 65 66 64 62 64 64 65 64 64 64 65 65 66 67 66 66 65 65 64 64 64 63 63 63 62 63 63 63 63 63 63 62 62 61 61 60 60 58 56 56 59 57 57 58 56 55 53 52 52 48 47 53 54 54 54 55 56 56 55 55
24 26 27 27 29 43 56 59 60 61 62 62 61 62 63 63 63 64 65 65 65 66 67 67 65 65 65 65 64 64 64 64 65 65 65 65 66 66 67 67 66 65 65 65 64 64 64 63 63 63 63 63 64 63 63 63 63 62 61 61 60 60 59 57 56 56 57 57 57 59 60 58 53 49 49 47 47 51 50 51 53 53 55 54 53
26 25 25 27 30 31 39 57 60 60 61 62 62 62 61 62 63 64 64 65 65 66 66 67 66 65 64 64 65 64 64 64 65 65 66 66 66 66 66 67 66 66 65 65 64 64 64 63 63 63 63 63 63 62 63 63 63 63 62 61 60 60 59 58 57 57 56 56 57 57 59 54 53 52 51 51 50 48 47 49 50 52 53 53 53
24 24 24 24 25 27 32 44 58 60 61 61 62 62 62 61 62 62 63 65 65 66 66 67 66 65 64 63 64 64 65 65 65 65 65 66 66 66 66 66 66 66 65 65 64 64 64 63 63 62 63 63 64 62 63 64 63 62 62 61 60 60 59 59 58 57 58 57 56 56 56 55 54 53 52 52 51 49 48 47 48 49 51 51 52
23 24 24 25 25 27 31 40 51 59 60 62 61 62 62 61 61 61 61 62 64 66 66 66 66 65 63 63 64 64 65 65 65 65 65 66 66 66 66 66 66 66 65 65 64 64 64 64 63 62 63 63 64 62 63 63 63 63 62 61 60 59 60 60 58 58 58 58 57 57 57 55 55 54 52 52 50 51 52 46 48 47 47 50 51
23 24 25 25 26 29 31 34 38 49 60 60 61 61 62 62 62 62 62 62 64 65 65 66 66 66 65 65 65 65 65 65 64 65 65 65 65 65 66 66 66 66 65 65 64 64 64 64 63 62 63 64 64 63 63 63 63 63 62 61 60 60 60 60 59 59 59 58 57 58 57 56 56 55 54 52 53 51 50 49 49 47 46 47 50
25 25 25 26 28 29 33 35 36 38 50 60 60 61 61 62 63 63 63 63 63 64 65 65 66 66 66 65 65 65 65 65 64 64 65 65 65 65 66 66 66 66 65 65 64 64 63 64 64 63 63 63 63 63 63 63 64 64 63 62 61 60 60 60 60 59 58 58 58 58 59 58 58 57 56 54 53 53 53 52 50 48 47 46 49
28 28 29 30 30 30 32 33 36 40 46 56 61 61 61 61 61 62 64 64 64 64 64 65 65 66 66 66 66 65 65 65 65 65 65 65 65 65 65 65 65 65 65 65 64 64 63 64 63 63 63 63 64 63 63 63 63 64 63 62 61 60 60 60 59 59 59 58 58 59 60 60 58 58 57 55 55 54 53 52 49 49 50 49 48
33 34 34 34 34 34 35 36 37 40 44 51 59 62 62 62 62 62 62 64 65 64 63 63 64 65 66 66 66 66 65 65 65 65 65 65 65 65 65 65 65 65 65 65 65 64 64 64 64 63 63 63 63 64 63 63 64 63 63 63 62 61 61 60 60 60 59 59 59 59 59 60 60 59 57 56 55 54 52 52 51 48 48 47 47
38 38 37 37 37 37 38 39 40 42 46 52 57 61 62 62 63 63 63 63 64 65 65 64 64 64 65 65 66 66 65 65 65 65 65 65 66 65 65 65 65 65 65 65 65 64 64 64 64 63 63 63 64 64 64 64 64 64 63 63 63 62 61 61 60 60 59 59 59 59 60 60 60 60 58 57 56 55 54 53 52 50 51 48 49
36 37 37 37 37 38 38 39 40 43 47 53 58 61 62 63 63 64 64 64 65 65 65 65 65 65 65 65 66 66 66 66 65 65 65 65 65 66 65 65 65 65 65 65 65 64 64 64 64 63 63 64 64 64 64 64 64 64 63 63 63 63 62 61 61 60 60 60 60 60 60 59 60 61 59 58 56 56 56 54 53 53 53 52 49
34 37 38 38 37 37 38 38 39 41 45 52 57 61 62 63 63 63 64 65 65 65 66 66 66 66 66 66 66 66 66 65 65 65 65 65 65 66 66 66 66 65 65 65 65 64 64 64 64 64 64 64 64 64 64 64 64 64 63 63 63 63 63 62 61 61 61 60 61 60 60 60 60 61 61 60 58 57 57 55 54 53 54 54 52
34 36 37 38 38 39 38 38 38 39 42 45 53 59 62 62 63 63 63 63 63 63 64 64 63 63 62 63 64 65 65 65 65 65 65 65 65 65 65 65 65 65 65 65 64 64 64 65 64 64 64 64 64 64 64 63 64 64 64 64 64 64 63 63 62 61 61 61 61 60 60 60 61 60 60 61 60 59 59 56 55 54 56 55 54
35 36 36 37 36 36 37 37 37 39 41 42 47 57 61 61 62 62 63 63 63 63 63 63 62 62 62 63 63 63 65 65 65 65 65 64 64 65 65 65 65 65 64 64 64 64 64 64 64 64 64 64 64 64 64 64 63 63 63 63 64 64 63 63 63 62 62 61 61 60 60 60 61 61 61 61 61 60 58 58 56 55 56 56 56
36 36 37 37 36 36 37 37 37 38 39 41 43 53 60 61 61 62 62 62 62 62 62 62 62 62 62 62 63 63 63 65 65 64 64 64 64 64 64 64 65 65 64 64 64 64 64 64 64 64 64 64 64 64 64 64 64 63 63 63 63 63 63 63 63 63 63 62 61 61 60 60 61 61 61 61 61 61 60 59 57 56 55 56 58
37 37 37 37 36 36 36 37 38 39 42 44 45 52 58 61 60 61 61 60 61 61 62 62 63 62 62 62 63 63 63 64 64 64 64 64 64 64 64 65 64 64 64 64 63 63 63 64 64 64 64 64 65 65 65 64 64 63 63 63 63 63 63 63 63 63 63 62 62 61 61 61 61 61 61 61 60 60 61 60 59 57 55 55 57
38 38 38 37 37 36 36 37 38 38 39 42 44 51 58 60 60 60 60 60 60 60 61 61 63 63 62 61 61 62 63 64 63 64 63 63 64 64 64 65 64 64 64 63 63 63 63 64 64 64 64 64 65 65 65 65 64 64 63 63 63 63 63 63 63 62 63 63 62 62 62 61 61 61 61 60 60 60 60 60 60 58 57 55 56
39 39 39 38 37 37 37 38 38 37 38 39 44 51 57 59 60 60 60 60 60 60 60 61 62 61 61 61 61 61 61 61 61 62 63 63 64 64 64 65 65 64 64 64 63 63 63 63 64 64 64 64 65 65 65 65 65 64 64 63 63 63 63 63 62 63 63 63 62 62 62 62 61 61 61 61 61 60 60 60 60 59 59 58 55
39 39 40 39 38 37 37 37 37 37 37 38 41 48 56 59 60 60 60 60 61 60 59 61 61 61 61 61 60 61 61 61 61 61 61 63 64 64 64 64 65 65 64 64 64 63 63 63 64 64 64 64 65 65 65 65 65 64 64 64 64 63 63 63 63 63 63 63 62 62 62 62 61 61 61 61 61 61 60 60 60 60 60 59 56
39 39 39 40 39 38 37 37 36 37 37 39 40 46 53 58 60 59 60 60 61 61 60 59 60 59 60 61 61 61 62 61 61 61 61 62 62 63 64 64 64 65 64 64 63 63 63 63 64 64 64 65 65 65 65 65 65 65 65 64 64 64 64 63 63 63 63 62 63 62 62 62 61 61 61 61 60 60 60 60 60 60 59 59 58
39 39 40 40 39 38 37 37 37 37 37 38 40 44 50 56 59 60 59 60 60 61 61 60 59 58 57 59 60 61 61 61 61 61 61 62 62 63 64 64 64 64 65 64 64 63 63 63 63 64 64 65 65 65 65 65 65 65 65 65 65 64 64 64 63 63 63 63 62 62 62 62 61 61 61 61 61 60 60 60 60 60 59 59 58
39 40 40 40 40 40 39 38 38 37 38 38 39 41 46 53 57 59 60 60 60 60 61 61 61 60 58 58 59 61 61 61 61 61 62 63 64 64 64 64 64 64 64 64 64 64 63 63 64 64 64 65 65 65 65 65 65 65 65 65 65 64 64 64 64 64 63 63 63 63 62 62 61 61 61 61 61 61 60 60 60 60 60 59 58
40 40 40 40 40 41 40 39 38 39 39 39 39 40 43 49 55 58 60 60 61 60 61 61 62 61 61 60 60 62 62 63 62 62 63 64 64 64 64 64 64 64 64 64 64 64 64 64 64 64 64 65 65 65 65 65 65 65 65 65 65 64 64 64 64 64 64 63 63 63 63 62 62 62 62 62 61 61 61 60 60 60 60 59 58
41 41 41 41 41 41 41 40 39 40 40 40 39 39 42 49 56 58 59 60 60 61 61 61 61 61 62 62 62 62 63 63 63 63 64 64 65 64 64 64 64 64 64 64 65 65 64 64 64 64 64 64 65 65 65 65 65 65 65 65 65 64 64 64 64 64 64 63 63 63 63 62 62 61 59 59 59 60 61 60 60 60 59 59 58
43 43 43 43 42 43 42 41 41 41 42 42 41 39 40 46 54 59 59 59 60 60 61 61 61 62 62 62 62 63 63 63 63 63 64 64 64 64 64 64 64 64 64 65 65 65 65 64 64 64 64 64 65 65 62 59 60 64 65 65 65 65 64 64 64 63 63 63 63 63 63 61 60 59 57 55 54 54 57 60 60 59 59 58 57
44 45 45 45 44 44 44 44 44 44 44 44 43 41 42 45 53 59 60 60 60 60 60 61 61 61 62 62 62 62 62 62 62 62 62 62 62 62 62 62 62 62 62 62 62 62 63 64 64 64 64 64 64 64 57 52 53 56 64 65 65 65 64 64 64 63 63 63 63 63 63 62 60 59 58 53 52 51 52 53 53 54 57 58 56
43 44 46 47 47 47 47 46 46 45 45 45 44 42 41 43 50 59 61 61 61 60 60 60 61 61 61 61 62 61 61 61 62 62 62 62 62 62 62 61 61 61 61 62 62 62 63 63 63 64 64 64 64 59 53 51 51 51 57 64 65 65 64 64 64 64 63 63 62 62 62 62 62 61 61 59 55 51 50 50 49 49 49 50 51
42 44 45 47 48 48 48 47 47 47 46 46 46 43 43 43 47 57 60 60 61 61 60 60 60 61 61 61 61 61 61 61 62 62 62 62 61 61 61 61 61 61 62 62 62 63 63 63 63 63 63 63 64 57 50 50 50 50 51 59 65 65 64 64 64 64 64 63 62 61 61 61 61 60 60 60 59 57 51 49 50 49 49 47 45
41 43 45 47 49 49 49 49 48 47 47 48 48 46 46 46 46 53 60 60 61 60 61 60 60 61 61 61 61 61 61 61 61 61 61 61 61 61 62 62 62 62 62 62 62 62 63 63 63 64 63 63 64 58 49 49 49 49 49 54 65 65 64 64 64 64 64 63 62 61 61 60 60 60 60 60 59 58 56 53 53 53 52 52 47
41 43 45 47 50 50 50 49 49 49 49 49 49 48 49 48 48 51 58 61 60 60 60 60 60 61 60 60 60 60 60 60 61 61 61 61 61 61 61 61 61 62 61 62 62 62 62 62 62 63 63 63 63 54 49 47 47 48 48 51 64 65 64 64 64 64 64 63 62 61 61 61 60 59 59 58 59 58 56 55 54 53 53 53 52
42 44 46 47 49 51 50 50 50 49 49 49 49 49 50 49 50 51 55 59 60 60 59 59 59 59 59 59 59 59 60 60 60 60 60 61 61 61 61 61 61 61 62 62 62 62 62 62 62 63 63 63 63 53 48 47 48 48 48 55 63 65 64 64 64 64 64 63 63 62 61 61 60 59 56 51 54 57 56 55 54 53 53 52 52
44 46 46 46 47 51 51 51 51 50 50 50 49 49 50 50 49 50 52 55 57 58 58 58 58 58 59 59 59 59 59 59 60 60 60 60 61 61 61 61 61 61 61 61 62 62 62 62 62 62 63 63 63 55 49 48 48 48 49 58 63 64 64 64 64 64 63 63 62 61 61 60 60 59 53 47 48 52 56 55 54 53 52 51 50
45 46 45 45 47 50 52 52 52 51 50 50 50 50 50 50 50 49 51 52 55 57 57 58 58 58 59 59 59 59 58 59 60 60 60 60 61 61 61 60 61 61 61 61 62 62 62 62 62 62 62 62 62 58 50 50 48 47 51 60 62 64 64 64 64 64 63 62 62 59 60 60 59 59 49 46 46 51 55 54 53 52 50 49 49
45 46 45 44 46 50 53 53 52 52 52 51 51 50 51 51 51 49 48 50 52 53 54 56 58 58 59 59 59 59 59 58 59 59 60 60 60 60 60 60 61 61 61 61 61 61 61 62 62 62 60 61 62 59 51 50 47 46 51 60 62 63 64 64 64 63 62 62 61 59 57 58 58 56 47 45 44 50 55 54 53 52 51 50 50
46 47 46 44 44 46 49 51 52 53 53 52 51 51 51 51 51 50 50 50 50 50 52 53 54 55 57 58 59 59 59 58 58 59 59 59 59 59 59 59 60 60 60 60 60 61 61 61 61 61 62 62 62 62 56 48 47 46 48 60 63 62 62 63 63 63 62 60 60 60 56 49 49 48 45 44 44 46 54 54 53 52 52 51 51
46 47 45 44 43 44 45 48 50 52 53 53 53 52 52 51 51 51 51 51 52 52 52 52 52 54 55 57 58 59 58 58 58 58 58 58 58 58 58 58 59 59 60 60 60 60 60 60 61 61 62 62 62 62 58 47 47 47 47 53 63 62 63 63 63 62 62 60 59 58 58 51 46 46 44 43 43 43 47 54 52 52 52 52 48
46 46 46 45 43 43 44 45 46 48 51 52 52 51 51 51 51 51 51 52 52 52 52 52 52 52 54 55 56 57 58 58 58 58 57 57 57 57 57 58 58 59 59 59 59 58 59 60 60 61 61 62 61 58 61 47 46 46 46 48 61 63 62 63 63 63 61 60 59 58 58 52 45 45 44 43 43 43 43 52 52 46 45 43 47
45 46 46 46 44 43 43 44 44 45 48 50 51 50 50 50 50 50 51 52 52 52 52 52 52 52 52 53 55 56 56 58 58 58 57 57 57 57 57 57 58 58 58 58 58 58 58 59 59 60 61 61 62 60 55 53 45 45 45 46 51 58 54 61 63 62 61 61 60 58 57 51 45 44 43 42 42 42 43 49 45 43 42 40 43
45 46 46 45 45 44 44 44 44 44 45 47 49 49 49 49 50 51 51 51 51 52 52 52 52 52 52 52 53 55 56 57 57 57 57 57 57 57 57 57 57 57 57 58 59 59 59 59 59 60 60 61 61 62 54 51 49 44 45 45 46 50 53 60 62 63 62 61 60 59 56 48 44 44 43 42 42 42 45 43 42 41 40 40 45
43 44 45 45 45 44 44 44 45 44 44 45 46 47 47 47 49 50 50 51 51 51 52 52 52 53 52 52 53 54 55 56 57 57 57 57 57 57 57 57 57 57 57 57 58 58 59 59 59 59 60 61 61 61 60 52 47 45 44 44 45 47 49 50 60 62 61 61 55 52 49 46 44 43 42 41 41 41 42 42 41 40 42 44 45
41 42 43 44 45 44 44 44 45 45 45 45 45 46 46 46 47 49 50 50 50 50 50 51 51 52 53 53 52 53 53 55 56 57 57 57 57 57 57 57 57 57 57 57 57 58 58 59 59 60 60 60 61 61 61 58 49 48 45 44 44 45 48 48 53 59 55 52 49 48 47 45 44 44 45 46 45 45 40 40 40 41 45 44 43
39 40 42 42 43 43 43 43 43 44 45 46 46 45 45 45 46 47 48 49 49 49 49 50 50 51 52 53 53 53 53 54 55 56 57 57 57 58 57 57 58 58 58 58 58 57 58 58 58 59 60 60 60 60 60 59 56 54 52 49 46 47 46 47 50 54 53 55 51 50 49 46 46 43 44 44 44 43 41 42 42 43 44 44 43
40 40 41 41 41 41 42 42 43 44 45 45 46 46 46 45 45 46 47 48 48 48 48 49 49 50 51 52 52 48 51 53 54 55 56 57 57 58 58 57 58 58 58 58 58 58 58 58 58 59 59 59 60 60 60 60 58 56 55 55 52 51 52 52 53 55 57 57 54 47 46 48 49 47 45 45 46 45 43 41 42 42 43 43 43
39 40 40 40 40 40 41 41 42 43 44 44 44 45 45 44 44 45 46 47 47 47 48 48 49 49 50 50 52 52 53 53 54 54 56 57 57 57 58 58 59 59 59 59 59 59 59 59 59 59 59 59 59 59 59 53 57 51 54 56 54 54 55 55 53 51 56 56 52 50 50 49 49 48 46 47 45 44 43 42 42 42 42 42 42
39 39 39 39 39 39 39 39 40 41 43 43 43 44 44 44 44 45 45 46 46 47 48 48 49 49 49 49 51 52 53 53 53 54 55 56 50 51 54 58 58 53 51 51 52 58 59 60 60 60 60 59 59 60 53 50 50 48 48 49 51 51 50 54 51 47 52 56 53 52 51 50 49 50 49 47 47 45 44 42 42 39 41 41 41
38 38 38 38 39 39 38 38 38 39 41 42 42 42 42 42 43 44 45 46 46 47 47 48 48 48 47 48 48 50 52 53 53 54 54 54 56 54 47 48 51 52 49 48 47 49 49 51 57 59 58 52 51 51 49 49 48 47 47 47 47 47 46 47 46 47 52 54 51 52 51 51 49 51 50 49 47 46 44 43 42 41 41 41 39